Youngstown, OH

3:06 PM EDT on April 26, 2017 (GMT -0400)
Youngstown-Warren Regional

Weather History for KYNG - December, 2014

Change the Weather History Date:

Monday, December 8, 2014

  Actual Average Record
Temperature  
Mean Temperature 36 °F 33 °F  
Max Temperature 41 °F 39 °F 65 °F (1966)
Min Temperature 30 °F 26 °F 1 °F (2005)
Degree Days  
Heating Degree Days 29 32  
Month to date heating degree days 243 248  
Since 1 July heating degree days 1653 1577  
Cooling Degree Days 0 0  
Month to date cooling degree days 0 0  
Year to date cooling degree days 533 544  
Moisture  
Dew Point 17 °F    
Average Humidity 49    
Maximum Humidity 64    
Minimum Humidity 33    
Precipitation  
Precipitation 0.00 in 0.11 in 1.06 in (1978)
Month to date precipitation 1.18 0.81  
Year to date precipitation 38.13 36.73  
Snow  
Snow 0.00 in 0.50 in - ()
Month to date snowfall 0.0 3.4  
Since 1 July snowfall 11.6 7.8  
Snow Depth 0.00 in    
Sea Level Pressure  
Sea Level Pressure 30.32 in    
Wind  
Wind Speed 12 mph (SE)    
Max Wind Speed 20 mph    
Max Gust Speed 27 mph    
Visibility 10 miles    
Events      
T = Trace of Precipitation, MM = Missing Value Source: NWS Daily Summary

Daily Weather History Graph

Daily Weather History Graph

Search for Another Location

Airport or City:

Trip Planner

Search our weather history database for the weather conditions in past years. The results will help you decide how hot, cold, wet, or windy it might be!

Date:

Astronomy

Dec. 08, 2014 Rise Set
Actual Time 7:35 AM EST 4:53 PM EST
Civil Twilight 7:04 AM EST 5:24 PM EST
Nautical Twilight 6:30 AM EST 5:59 PM EST
Astronomical Twilight 5:56 AM EST 6:32 PM EST
Moon 7:16 PM EST (12/8) 9:04 AM EST (12/8)
Length of Visible Light 10h 19m
Length of Day
9h 17m
Waning Gibbous, 95% of the Moon is Illuminated
Dec 8
Waning Gibbous
Dec 14
Last Quarter
Dec 21
New
Dec 28
First Quarter
Jan 4
Full

Hourly Weather History & Observations

Time (EST) Temp. Windchill Dew Point Humidity Pressure Visibility Wind Dir Wind Speed Gust Speed Precip Events Conditions
12:51 AM 30.9 °F 22.8 °F 16.0 °F 54% 30.49 in 10.0 mi ESE 9.2 mph - N/A   Overcast
1:51 AM 30.9 °F 22.2 °F 15.1 °F 52% 30.48 in 10.0 mi ESE 10.4 mph - N/A   Overcast
2:51 AM 30.9 °F 22.2 °F 14.0 °F 50% 30.47 in 10.0 mi ESE 10.4 mph - N/A   Overcast
3:51 AM 30.0 °F 20.5 °F 14.0 °F 51% 30.45 in 10.0 mi ESE 11.5 mph - N/A   Overcast
4:51 AM 30.0 °F 19.5 °F 14.0 °F 51% 30.42 in 10.0 mi ESE 13.8 mph - N/A   Overcast
5:51 AM 30.0 °F 21.1 °F 15.1 °F 54% 30.41 in 10.0 mi ESE 10.4 mph - N/A   Overcast
6:51 AM 30.0 °F 21.1 °F 14.0 °F 51% 30.41 in 10.0 mi SE 10.4 mph - N/A   Overcast
7:51 AM 30.9 °F 21.2 °F 14.0 °F 50% 30.39 in 10.0 mi ESE 12.7 mph - N/A   Overcast
8:51 AM 32.0 °F 22.5 °F 12.9 °F 45% 30.37 in 10.0 mi SE 12.7 mph - N/A   Overcast
9:51 AM 33.1 °F 22.6 °F 12.9 °F 43% 30.36 in 10.0 mi ESE 16.1 mph - N/A   Overcast
10:51 AM 35.1 °F 25.2 °F 12.9 °F 40% 30.35 in 10.0 mi SE 16.1 mph 23.0 mph N/A   Overcast
11:51 AM 37.9 °F 29.6 °F 12.0 °F 35% 30.31 in 10.0 mi SE 13.8 mph 19.6 mph N/A   Overcast
12:51 PM 39.0 °F 32.3 °F 12.9 °F 34% 30.29 in 10.0 mi SE 10.4 mph 21.9 mph N/A   Overcast
1:51 PM 39.9 °F 31.8 °F 14.0 °F 35% 30.25 in 10.0 mi SE 15.0 mph 24.2 mph N/A   Overcast
2:51 PM 39.0 °F 32.8 °F 15.1 °F 38% 30.24 in 10.0 mi SE 9.2 mph 20.7 mph N/A   Overcast
3:51 PM 37.9 °F 29.6 °F 16.0 °F 41% 30.22 in 10.0 mi SE 13.8 mph - N/A   Overcast
4:51 PM 37.0 °F 27.7 °F 17.1 °F 44% 30.22 in 10.0 mi SE 16.1 mph 24.2 mph N/A   Overcast
5:51 PM 37.0 °F 28.9 °F 19.0 °F 48% 30.20 in 10.0 mi SE 12.7 mph - N/A   Overcast
6:51 PM 37.0 °F 28.9 °F 19.9 °F 50% 30.21 in 10.0 mi SE 12.7 mph - N/A   Overcast
7:51 PM 37.0 °F 28.9 °F 21.9 °F 54% 30.19 in 10.0 mi SE 12.7 mph - N/A   Overcast
8:51 PM 37.0 °F 30.4 °F 24.1 °F 59% 30.19 in 10.0 mi SSE 9.2 mph - N/A   Overcast
9:51 PM 37.9 °F 30.5 °F 25.0 °F 60% 30.19 in 10.0 mi SE 11.5 mph - N/A   Overcast
10:51 PM 37.9 °F 31.5 °F 26.1 °F 62% 30.19 in 10.0 mi SSE 9.2 mph - N/A   Overcast
11:51 PM 37.0 °F 30.4 °F 26.1 °F 65% 30.17 in 10.0 mi SE 9.2 mph - N/A   Overcast